Location: Dannhausen
(51.8650°N, 10.1026°E)
Time: 00:01:29
(UTC+00:00)

Cosmos 2233 Rocket - Pass Details

Date: 17 August 2020
Orbit: 952 x 992 km, 82.9° (Epoch: 26 September)

Event Time Altitude Azimuth Distance (km) Brightness Sun altitude
Exits shadow 19:53:01 11° 104° (ESE) 2,708 5.8 -10.8°
Maximum altitude 19:56:00 15° 75° (ENE) 2,429 5.7 -11.2°
Drops below altitude 10° 19:59:16 10° 43° (NE) 2,762 6.3 -11.6°
Sets 20:03:00 0° 22° (NNE) 3,712 7.3 -12.0°
